NUSAT-30 (MARGHERITA) (52748 NORAD) Tracking and Keplerian Element Data
This shows tracking and keplerian element data for the satellite.
Feedback or suggestion? Click here.
Element | Value |
Catalog | 52748 |
Name | NUSAT-30 (MARGHERITA) |
Epoch Orbit | 713 |
Epoch Day | 192.88502615 |
Epoch Year | 2022 |
RAAN | 307.1984 |
Inclination | 97.4265 |
Eccentricity | 0.0011174 |
Argument of Perigee | 57.4372 |
Mean Anonmoly | 302.7941 |
Mean Motion | 15.207407 |
Decay Rate | 5.704E-05 |
L1 | 1 52748U 22057S 22192.88502615 .00005704 00000+0 26192-3 0 9991 |
L2 | 2 52748 97.4265 307.1984 0011174 57.4372 302.7941 15.20740700 7138 |
Live tracking and technical data element details for NUSAT-30 (MARGHERITA) (NORAD 52748). NUSAT-30 (MARGHERITA) can be tracked NOW for your location showing map with azimuth and elevation plus other details from your city location.
Track the satellite on the map from your city or location and see movement details for azimuth, elevation, latitude, longitude, range, height, and movement on the map or in text.
IsCatalogInMostPopularTable: catalog: 52748, numindb: 6
Update: records affected: 1
GetName: 52748 NUSAT-30 (MARGHERITA)
Hit Count: updated at: Sun, 14 Aug 2022 01:30:25 GMT